"Pseudo-MPEC" for 6F83121

Created 2026 Jun 17 18:35:02 UT using Find_Orb

Click here for an explanation of pseudo-MPECs

 
 Astrometry: 
     6F83121*KC2026 06 08.96680 11 22 15.62 -14 39 15.0    ~695o 20.7 GVNEOCPW94
     6F83121 KC2026 06 08.97300 11 22 17.12 -14 39 04.0    ~695o 20.7 GVNEOCPW94
     6F83121 KC2026 06 08.97920 11 22 18.59 -14 38 52.6    ~695o 20.0 GVNEOCPW94
     6F83121 4C2026 06 09.11307 11 22 49.52 -14 35 11.9    ~6965 19.6 VqNEOCPW97
     6F83121 4C2026 06 09.11891 11 22 50.79 -14 35 02.9    ~6965 19.6 VqNEOCPW97
     6F83121 4C2026 06 09.12471 11 22 52.18 -14 34 51.8    ~6965 19.9 VqNEOCPW97
     6F83121 KC2026 06 09.29513811 23 32.760-14 30 09.68   ~6985 20.3 GWNEOCP474
     6F83121 KC2026 06 09.30002311 23 33.866-14 30 01.84   ~6985 20.3 GWNEOCP474
     6F83121 KC2026 06 09.30491311 23 34.997-14 29 53.95   ~6985 20.3 GWNEOCP474
     6F83121 KC2026 06 09.30980211 23 36.161-14 29 45.92   ~6985 20.2 GWNEOCP474
     6F83121 KC2026 06 09.31469311 23 37.250-14 29 37.93   ~6985 20.1 GWNEOCP474
     6F83121 0B2026 06 09.73999811 25 16.788-14 18 05.59   ~69JZ       WNEOCPM21
     6F83121 0B2026 06 09.75105111 25 19.337-14 17 47.58   ~69JZ       WNEOCPM21
     6F83121 0B2026 06 09.76212411 25 21.873-14 17 29.27   ~69JZ 20.2 GWNEOCPM21
     6F83121 0C2026 06 09.86931811 25 46.804-14 14 44.07   ~69LZ 19.9 GXNEOCPR59
     6F83121 0C2026 06 09.87741011 25 48.693-14 14 30.74   ~69LZ 19.7 GXNEOCPR59
     6F83121 0C2026 06 09.88510211 25 50.419-14 14 18.92   ~69LZ 19.6 GXNEOCPR59
     6F83121 KB2026 06 09.91809611 25 58.422-14 13 15.95   ~6A0K 20.1 VZNEOCPY05
     6F83121 KB2026 06 09.94753411 26 05.162-14 12 28.20   ~6A0K 20.0 VZNEOCPY05
     6F83121 KB2026 06 09.97673611 26 11.861-14 11 40.51   ~6A0K 20.7 VZNEOCPY05
     6F83121 KB2026 06 10.10625011 26 42.156-14 08 18.46   ~6A45 20.2 VZNEOCPW05
     6F83121 KB2026 06 10.12566011 26 46.546-14 07 47.50   ~6A45 20.0 VZNEOCPW05
     6F83121 KB2026 06 10.14479211 26 50.923-14 07 16.68   ~6A45 20.2 VZNEOCPW05
     6F83121 KB2026 06 11.27178 11 31 13.65 -13 36 52.6    ~6B7Z 20.3 rZNEOCPE94
     6F83121 KB2026 06 11.27959 11 31 15.43 -13 36 40.0    ~6B7Z 20.3 rZNEOCPE94
     6F83121 KB2026 06 11.28740 11 31 17.20 -13 36 26.8    ~6B7Z 20.2 rZNEOCPE94
     6F83121 KC2026 06 11.86794011 33 31.351-13 21 18.29   ~6BLo 20.5 GWNEOCPB74
     6F83121 KC2026 06 11.87199111 33 32.246-13 21 11.95   ~6BLo 20.5 GWNEOCPB74
     6F83121 KC2026 06 11.87828711 33 33.706-13 21 01.69   ~6BLo 20.4 GWNEOCPB74
     6F83121 KB2026 06 13.26702 11 38 53.90 -12 44 42.1    ~6D7K 20.1 rZNEOCPE94
     6F83121 KB2026 06 13.27554 11 38 55.77 -12 44 28.3    ~6D7K 20.1 rZNEOCPE94
     6F83121 KB2026 06 13.28334 11 38 57.47 -12 44 16.7    ~6D7K 20.2 rZNEOCPE94
     6F83121 KB2026 06 15.28348 11 46 33.50 -11 53 46.1    ~6F8Z 20.3 rZNEOCPE94
     6F83121 KB2026 06 15.29484 11 46 36.10 -11 53 28.8    ~6F8Z 19.9 rZNEOCPE94
     6F83121 KB2026 06 15.30620 11 46 38.70 -11 53 11.8    ~6F8Z 20.4 rZNEOCPE94

Station data:
(474) Mount John Observatory, Lake Tekapo  (S43.987385 E170.464960)  New
   Zealand.  Observers A. C. Gilmore, P. M. Kilmartin. Measurer P. M.
   Kilmartin. 1.0-m f/7.7 reflector + CCD.
(B74) Santa Maria de Montmagastrell  (N41.720158 E1.105360)  Spain.  Observer
   J. M. Bosch. 0.4-m f/1.2 Schmidt-Cassegrain + CCD.
(E94) Gisborne (Possum Observatory)  (S38.629920 E177.883310)  New Zealand.
   Observer J. Drummond. 0.41-m f/4.5 Newtonian reflector + CCD.
(M21) Schiaparelli Southern Observatory, Hakos  (S23.236549 E16.361440)
   Namibia.  Observers A. Aletti, F. Bellini, L. Buzzi, G. Galli. Measurer L.
   Buzzi. 0.36-m f/8.4 reflector + CCD.
(R59) Camarasa Observatory, Astrocamp Nerpio  (N38.165429 W2.326580)  Spain.
(W05) Tree Gate Farm Observatory, Starkville  (N33.347635 W88.732810)
   US/Mississippi.  Observer J.-F. Gout. 0.5-m f/1.5 reflector + CMOS.
(W94) AMACS1, San Pedro de Atacama  (S22.953074 W68.179810)  Chile.  Observers
   A. Maury, G. Attard. Measurers A. Maury, G. Attard, D. Parrott. 0.28-m
   f/2.2 Schmidt + CCD.
(W97) Atacama Desert Observatory, San Pedro de Atacama  (S22.953413
   W68.179760)  Chile.
(Y05) SONEAR Wykrota-CEAMIG, Serra da Piedade  (S19.824251 W43.690000)
   Brazil.  Observer C. Jacques. 0.45-m f/2.9 reflector + CMO.

Orbital elements:  6F83121
   Perihelion 2026 May 16.977742 +/- 0.326 TT = 23:27:56.9 (JD 2461177.477742)
Epoch 2026 Jun 15.0 TT = JDT 2461206.5   Earth MOID: 0.4221   Ma: 0.0696
M   6.677080497 +/- 0.44            (J2000 ecliptic)             AutoNEOCP
n   0.230067577 +/- 0.013           Peri.  325.691082 +/- 0.23
a   2.637742742 +/- 0.099           Node   238.481058 +/- 0.24
e   0.47898685 +/- 0.0177           Incl.   34.986219 +/- 0.21
P   4.28399                H 18.29  G  0.15   U  9.8
q 1.374298631 +/- 0.00498    Q 3.901186853 +/- 0.193
From 35 observations 2026 June 8-15; mean residual 0".50
Residuals in arcseconds: 
260608 W94  1.1-  1.0-    260609 M21  .03+  .04-    260611 E94  .33+  .49-    
260608 W94  .08-  .25-    260609 M21  .07-  .17+    260611 E94  .13+  .25+    
260608 W94  .52+  .91+    260609 R59  .34+  .55+    260611 B74  .02+  .42+    
260609 W97  .28+  .11-    260609 R59  .65+  .64+    260611 B74  .43-  .33+    
260609 W97  .98-  .80-    260609 R59  .08-  .13-    260611 B74  .14-  .60+    
260609 W97  .38-  .67+    260609 Y05  .77+  .07+    260613 E94  .26+  .48-    
260609 474  .20+  .32+    260609 Y05  .57+  .22-    260613 E94  .53-  .18+    
260609 474  .12-  .14+    260609 Y05  .43+  .24-    260613 E94  1.4-  .26-    
260609 474  .09-  .01-    260610 W05  .84+  .42+    260615 E94  .71-  .28-    
260609 474  .41+  .01-    260610 W05  .34-  .29-    260615 E94  .25+  .10+    
260609 474  .18-  .06-    260610 W05  .86-  .69-    260615 E94  1.2+  .18+    
260609 M21  .13-  .01+    260611 E94  .38+  .63-    

Ephemerides (geocentric):
Date (UTC) HH   RA             Dec           delta  r     elong  mag " sig PA
---- --------  ------------   ------------  ------ ------ -----  --- --------
2026 06 17 19  11 55 57.392   -10 53 09.49  .86225 1.4114  97.1 20.5 1.00 150
2026 06 17 20  11 56 06.679   -10 52 10.54  .86254 1.4115  97.1 20.5 1.01 150
2026 06 17 21  11 56 15.964   -10 51 11.65  .86283 1.4116  97.1 20.5 1.03 150
2026 06 17 22  11 56 25.247   -10 50 12.81  .86312 1.4117  97.1 20.5 1.05 150
2026 06 17 23  11 56 34.526   -10 49 14.02  .86341 1.4118  97.1 20.5 1.06 150
2026 06 18 00  11 56 43.804   -10 48 15.28  .86370 1.4119  97.0 20.5 1.08 150
2026 06 18 01  11 56 53.078   -10 47 16.59  .86399 1.4120  97.0 20.5 1.10 149
2026 06 18 02  11 57 02.350   -10 46 17.96  .86429 1.4121  97.0 20.5 1.12 149
2026 06 18 03  11 57 11.619   -10 45 19.37  .86458 1.4122  97.0 20.5 1.13 149
2026 06 18 04  11 57 20.886   -10 44 20.84  .86487 1.4123  97.0 20.5 1.15 149
2026 06 18 05  11 57 30.150   -10 43 22.36  .86517 1.4124  97.0 20.5 1.17 149
2026 06 18 06  11 57 39.412   -10 42 23.93  .86546 1.4125  97.0 20.5 1.19 149
2026 06 18 07  11 57 48.671   -10 41 25.55  .86576 1.4126  97.0 20.5 1.20 149
2026 06 18 08  11 57 57.927   -10 40 27.22  .86605 1.4127  97.0 20.5 1.22 148
2026 06 18 09  11 58 07.181   -10 39 28.94  .86634 1.4127  97.0 20.5 1.24 148
2026 06 18 10  11 58 16.432   -10 38 30.72  .86664 1.4128  96.9 20.5 1.26 148
2026 06 18 11  11 58 25.680   -10 37 32.54  .86694 1.4129  96.9 20.5 1.28 148
2026 06 18 12  11 58 34.926   -10 36 34.42  .86723 1.4130  96.9 20.5 1.29 148
2026 06 18 13  11 58 44.169   -10 35 36.35  .86753 1.4131  96.9 20.5 1.31 148
2026 06 18 14  11 58 53.409   -10 34 38.33  .86782 1.4132  96.9 20.5 1.33 148
2026 06 18 15  11 59 02.647   -10 33 40.36  .86812 1.4133  96.9 20.5 1.35 148
2026 06 18 16  11 59 11.883   -10 32 42.44  .86842 1.4134  96.9 20.5 1.37 147
2026 06 18 17  11 59 21.115   -10 31 44.58  .86872 1.4135  96.9 20.5 1.39 147
2026 06 18 18  11 59 30.345   -10 30 46.77  .86901 1.4136  96.9 20.5 1.41 147
2026 06 18 19  11 59 39.572   -10 29 49.00  .86931 1.4137  96.8 20.5 1.43 147
2026 06 18 20  11 59 48.797   -10 28 51.29  .86961 1.4138  96.8 20.5 1.44 147
2026 06 18 21  11 59 58.019   -10 27 53.64  .86991 1.4139  96.8 20.5 1.46 147
2026 06 18 22  12 00 07.238   -10 26 56.03  .87021 1.4140  96.8 20.5 1.48 147
2026 06 18 23  12 00 16.455   -10 25 58.47  .87051 1.4141  96.8 20.5 1.50 147
2026 06 19 00  12 00 25.669   -10 25 00.97  .87081 1.4142  96.8 20.5 1.52 146
2026 06 19 01  12 00 34.881   -10 24 03.52  .87111 1.4143  96.8 20.5 1.54 146
2026 06 19 02  12 00 44.089   -10 23 06.12  .87141 1.4144  96.8 20.5 1.56 146
2026 06 19 03  12 00 53.295   -10 22 08.77  .87171 1.4145  96.8 20.5 1.58 146
2026 06 19 04  12 01 02.499   -10 21 11.48  .87201 1.4146  96.8 20.5 1.60 146
2026 06 19 05  12 01 11.700   -10 20 14.23  .87231 1.4147  96.7 20.5 1.62 146
2026 06 19 06  12 01 20.898   -10 19 17.04  .87261 1.4148  96.7 20.5 1.64 146
2026 06 19 07  12 01 30.093   -10 18 19.90  .87291 1.4149  96.7 20.5 1.66 146
2026 06 19 08  12 01 39.286   -10 17 22.81  .87322 1.4150  96.7 20.5 1.69 145
2026 06 19 09  12 01 48.476   -10 16 25.78  .87352 1.4151  96.7 20.5 1.71 145
2026 06 19 10  12 01 57.664   -10 15 28.79  .87382 1.4152  96.7 20.5 1.73 145
2026 06 19 11  12 02 06.848   -10 14 31.86  .87413 1.4153  96.7 20.5 1.75 145
2026 06 19 12  12 02 16.030   -10 13 34.98  .87443 1.4154  96.7 20.5 1.77 145
2026 06 19 13  12 02 25.210   -10 12 38.15  .87473 1.4155  96.7 20.5 1.79 145
2026 06 19 14  12 02 34.387   -10 11 41.37  .87504 1.4156  96.6 20.5 1.81 145
2026 06 19 15  12 02 43.561   -10 10 44.65  .87534 1.4157  96.6 20.5 1.83 145
2026 06 19 16  12 02 52.732   -10 09 47.98  .87565 1.4158  96.6 20.5 1.86 144
2026 06 19 17  12 03 01.901   -10 08 51.36  .87595 1.4159  96.6 20.5 1.88 144
2026 06 19 18  12 03 11.067   -10 07 54.79  .87626 1.4160  96.6 20.5 1.90 144